DECAYED
Showing default

LEMUR 2 NANAZ, 58697 (Decayed)

Orbit data source: Space-Track

LEMUR 2 NANAZ, 58697 was a payload satellite owned by Spire (US) in LEO that was launched on Sat, 11 Nov 2023 UTC via an FALCON 9 launch vehicle from the Air Force Western Test Range (AFWTR). Payload-class satellites include a variety of spacecraft equipped with specific instruments for various scientific and technological missions. These include communications satellites like Starlink; space stations such as the ISS; scientific satellites like the Hubble; Earth observation satellites from companies like Planet Labs, Umbra, and HawkEye 360; GPS; miniature CubeSats for education and research; and military/defense satellites.

Not visible in the next 10 days
Identifier
58697, 2023-174DG
Orbit
Decayed
Country
Flag of USUS
Related business
Manufacturer
Spire/Glasgow
Mission
Decayed Commercial Sigint
Bus & Motor
CUBESAT 3U, Unknown motor
Mass
4.6 kg wet, 4.6 kg dry
Launch date (UTC)
2023-11-11 (2 years ago)
Launch vehicle
FALCON 9
Launch site
Air Force Western Test Range (AFWTR)
Object type
Payload
Rocket body
Debris
Shape & HBR
Box + 2 Pan, 0.3 m
Radar Cross Section
0.054 m², Small (<0.1 m²)

Expand to show TLE details & history
Last TLE update: 7 months ago

TLE from 7 months ago
0 LEMUR 2 NANAZ
1 58697U 23174DG  25061.92642488  .15425695  24424-5  47719-3 0  9998
2 58697  97.1609 141.8842 0009591 260.6102  99.4116 16.44272623 69370
Epoch: 2025-03-02T22:14Z
TLE epoch observation values (Epoch: 2025-03-02T22:14:03.109Z)
Latitude
-0.00005°
Longitude
7.41971°
Altitude
158.756 km
Speed
7.81 km/s
True Right ascension
09h 27m 32s
True Declination
0° 00' 00"
Sunlit
Object was in full shadow at epoch
Visualization orbit readout
Latitude
Unknown
Longitude
Unknown
Altitude
Unknown
Speed
Unknown
Apparent Right ascension
Unknown
Apparent Declination
Unknown
Sunlit
N/A
Visualization observer readout
Local Sidereal Time
15:05:36
Azimuth
Unknown
Elevation
Unknown
Doppler factor
Unknown
Orbital elements
Apogee altitude
157.515 km
Perigee altitude
144.99 km
Semi-major axis
6,529.39 km
Eccentricity
0.00096
Inclination
97.1609°
RAAN
141.8842°
Arg. of periapsis
260.6102°
True anomaly
99.52°
Mean anomaly
99.4116°
Eccentric anomaly
99.4658°
Mean motion
4.11372 °/min
Orbital period
87.51 mins
BSTAR
0.00047719
Loading maneuver chart data...
Computing Atmospheric mass density...

Documentation

Showing up to 5 results
|